Regional Weather Roundup
Issued by NWS Goodland, KS

Home | Current Version | Previous Version | Graphics & Text | Print | Product List | Glossary On
Versions: 1 2 3 4 5 6 7 8 9 10 11 12 13 14 15 16 17 18 19 20 21 22 23 24 25 26 27 28 29 30 31 32 33 34 35 36 37 38 39 40 41 42 43 44 45 46 47 48 49 50
000
ASUS43 KGLD 241108
RWRGLD

GOODLAND FORECAST AREA HOURLY WEATHER ROUNDUP
NATIONAL WEATHER SERVICE GOODLAND KS
500 AM MDT SUN SEP 24 2017

...OFFICIAL OBSERVATIONS...

CITY           SKY/WX    TMP DP  RH WIND       PRES   REMARKS
GOODLAND KS    CLOUDY    50  50 100 NW12      29.90R
HILL CITY KS   HVY RAIN  67  66  97 SW15G22   29.88R FOG
IMPERIAL NEB   LGT RAIN  49  47  93 NE10      29.88F
MCCOOK NEB     LGT RAIN  55  54  96 W14       29.86R
AKRON CO       CLOUDY    45  43  93 N9        29.96F
BURLINGTON CO  CLOUDY    50  49  96 VRB5      29.92F
LIMON CO         N/A    N/A N/A N/A MISG      29.96F
$$

...UNOFFICIAL OBSERVATIONS...

CITY           SKY/WX    TMP DP  RH WIND       PRES   REMARKS
LENORA KS        N/A     65  32  29 MISG        N/A
NORTON KS      LGT RAIN  66  61  82 S13       29.85S
SHARON SPRINGS   N/A     52  51  95 CALM        N/A
TRIBUNE KS     CLOUDY    55  54  94 CALM      29.93R
KIT CARSON CO    N/A     50  47  90 MISG        N/A
YUMA CO        CLOUDY    45  43  93 NW9       29.94F
$$




USA.gov is the U.S. government's official web portal to all federal, state and local government web resources and services.